Regional Weather Roundup
Issued by NWS Jackson, KY

Home | Current Version | Previous Version | Graphics & Text | Print | Product List | Glossary On
Versions: 1 2 3 4 5 6 7 8 9 10 11 12 13 14 15 16 17 18 19 20 21 22 23 24 25 26 27 28 29 30 31 32 33 34 35 36 37 38 39 40 41 42 43 44 45 46 47 48 49 50
001
ASUS43 KJKL 240010
RWRJKL

EAST KENTUCKY HOURLY WEATHER ROUNDUP
NATIONAL WEATHER SERVICE JACKSON KY
800 PM EDT SAT JUL 23 2016

NOTE: "FAIR" INDICATES FEW OR NO CLOUDS BELOW 12,000 FEET WITH
NO SIGNIFICANT WEATHER AND/OR OBSTRUCTIONS TO VISIBILITY.

* THESE REPORTS ARE NOT UNDER NWS QUALITY CONTROL AND MAY NOT
  REPORT WEATHER SUCH AS PRECIPITATION AND FOG.

KYZ079-080-083-085-087-088-110-112-115-119-120-240100
...EASTERN KENTUCKY...

CITY           SKY/WX    TMP DP  RH WIND       PRES   REMARKS
JACKSON        CLEAR     86  71  60 CALM      30.00F HX  91
6HR MIN TEMP:  86; 6HR MAX TEMP:  92;

LONDON         CLEAR     88  70  55 E3        29.99S HX  93
6HR MIN TEMP:  88; 6HR MAX TEMP:  93;

SOMERSET*      CLEAR     84  72  65 CALM      29.98S
MONTICELLO*    CLEAR    N/A N/A N/A NE6       30.00R
WILLIAMSBURG*  CLEAR     86  75  70 CALM      30.00R HX  95
MIDDLESBORO*   LGT RAIN  81  70  70 CALM      30.01R
6HR MIN TEMP:  81; 6HR MAX TEMP:  92; 6HR PCP:  0.01;

HARLAN APT*      N/A     81  70  69 CALM      30.02S
PIKE CO APT*     N/A     81  69  66 CALM      30.01S
BIG SANDY APT* CLEAR     88  72  58 CALM      29.99  HX  95
MOREHEAD APT*  CLEAR     86  73  66 CALM      29.99F HX  93
ASHLAND*       CLEAR     86  77  74 CALM      29.94F HX  97
$$

KYZ035-036-041-042-044-050-067-078-099-240100
...CENTRAL KENTUCKY...

CITY           SKY/WX    TMP DP  RH WIND       PRES   REMARKS
MT STERLING*   MOCLDY    88  73  62 CALM      29.99S HX  96
FLEMING/MASON* CLEAR     87  73  63 CALM      29.98S HX  95
DANVILLE*      PTCLDY    84  73  70 CALM      29.98S HX  91
RICHMOND*      MOSUNNY   90  70  51 CALM      29.97F HX  95
LEXINGTON      CLEAR     90  72  55 W5        29.97S HX  97
6HR MIN TEMP:  89; 6HR MAX TEMP:  93;

FRANKFORT      CLEAR     90  71  53 NW5       29.95S HX  96
6HR MIN TEMP:  89; 6HR MAX TEMP:  93;

LOUISVILLE     PTSUNNY   91  71  51 CALM      29.93R HX  97
6HR MIN TEMP:  90; 6HR MAX TEMP:  95;

LEBANON*         N/A     88  73  62 SE3       29.96S HX  96
GLASGOW*       CLEAR     89  72  58 E3        29.96R HX  95
BOWLING GREEN  SUNNY     90  76  63 SE5       29.94R HX 101
6HR MIN TEMP:  90; 6HR MAX TEMP:  93;

$$

KYZ091>093-OHZ055-061-077-WVZ005-015-034-035-042-240100
...SOUTHERN OHIO/WEST VIRGINIA...

CITY           SKY/WX    TMP DP  RH WIND       PRES   REMARKS
COVINGTON      PTCLDY    89  73  59 W6        29.96S HX  97
COLUMBUS       CLOUDY    88  69  53 W6        29.95S HX  92
DAYTON         PTCLDY    85  72  65 W6        29.98R HX  91
WILMINGTON     MOCLDY    85  76  74 CALM      29.97R HX  94
HUNTINGTON       N/A     88  72  58 CALM      29.97S HX  94
CHARLESTON       N/A     88  71  57 NW5       29.98R HX  94
PINEVILLE*       N/A     80  72  76 MISG      30.07R
BECKLEY          N/A     84  69  60 N7        30.08R
BLUEFIELD        N/A     79  66  64 CALM      30.10F
LOGAN CO APT*    N/A     84  73  70 N3        30.01S HX  91
$$

VAZ002-007-008-TNZ017-027-036-066-071-240100
...SOUTHWEST VIRGINIA/EAST TENNESSEE...

CITY           SKY/WX    TMP DP  RH WIND       PRES   REMARKS
WISE*            N/A     79  55  44 CALM      30.10F
JONESVILLE*      N/A     88  73  62 W3        30.02R HX  96
ABINGDON*        N/A     85  68  56 CALM      30.05R
BRISTOL        MOCLDY    84  66  54 CALM      30.01S
MORRISTOWN*    PTCLDY    84  70  61 SW8       30.01R
SEVIERVILLE*   MOCLDY    81  64  57 W7        30.00F
KNOXVILLE      CLOUDY    77  71  82 W10       30.01R
OAK RIDGE      CLOUDY    77  71  82 W6        30.02F
CROSSVILLE     CLOUDY    74  70  87 VRB5      30.08F
NASHVILLE      PTSUNNY   86  69  56 S9        29.96R HX  90
$$

...KEY TO REMARKS...
VSB - VISIBILITY IN MILES
WCI - WIND CHILL INDEX
HX  - HEAT INDEX

$$




USA.gov is the U.S. government's official web portal to all federal, state and local government web resources and services.